Flag for Egypt Weather past 2 weeks in Port Said, Egypt

Now
61 °F

Clear.


Feels Like: 61 °F
Forecast: 56 / 70 °F
Wind: 7 mph from Northeast

Location: Port Said Airport

Current Time: Feb 1, 2015 at 9:45:04 PM

Latest Report: Feb 1, 2015 at 9:00 PM


Visibility: 10 mi

Pressure: 30.01 "Hg

Humidity: 72%

Dew point: 52 °F

Location of Port SaidLocation

Historic Weather in Port Said — Graph

°F

Port Said temperature yesterday

Maximum temperature yesterday: 68 °F (at 2:00 PM)
Minimum temperature yesterday: 55 °F (at 6:00 AM)
Average temperature yesterday: 60 °F

Past Weeks' High & Low Weather Summary

 TemperatureHumidityPressure
High75 °F (Jan 22, 2:00 PM)100% (Jan 19, 3:00 AM)30.36 "Hg (Jan 19, 3:00 AM)
Low52 °F (Jan 18, 5:00 AM)30% (Jan 31, 1:00 PM)29.92 "Hg (Jan 23, 3:00 PM)
Average61 °F74%30.08 "Hg
* Reported Jan 17 8:00 PM — Feb 1 8:00 PM, Port Said, Weather by CustomWeather, © 2014

Note: Actual official high and low records may vary slightly from our data, if they occured in-between our weather recording intervals... More about our weather records

Advertising

Port Said weather history for previous 24 hours

 ConditionsComfort  
Time TempWeatherWind HumidityBarometerVisibility
8:00 PM
Feb 1
61 °FClear.8 mph72%30.01 "Hg10 mi
7:00 PM61 °FClear.6 mph77%30.01 "Hg10 mi
6:00 PM63 °FClear.3 mph68%30.01 "Hg10 mi
5:00 PM64 °FSunny.3 mph64%30.01 "Hg10 mi
4:00 PM66 °FSunny.2 mph56%30.01 "Hg10 mi
3:00 PM66 °FSunny.3 mph52%30.01 "Hg10 mi
2:00 PM68 °FSunny.6 mph49%30.04 "Hg10 mi
1:00 PM70 °FSunny.5 mph38%30.04 "Hg10 mi
12:00 PM66 °FSunny.5 mph52%30.07 "Hg10 mi
11:00 AM64 °FSunny.7 mph37%30.09 "Hg10 mi
2:00 AM59 °FClear.5 mph55%30.09 "Hg10 mi
1:00 AM59 °FClear.5 mph59%30.09 "Hg10 mi
12:00 AM59 °FClear.3 mph59%30.09 "Hg10 mi
11:00 PM
Jan 31
61 °FClear.5 mph55%30.12 "Hg10 mi
10:00 PM61 °FClear.2 mph55%30.09 "Hg10 mi
9:00 PM61 °FClear.5 mph55%30.09 "Hg10 mi
Weather by CustomWeather, © 2014

See weather overviewHow to use our weather pages